| time (UTC) | temp C | wind direction | speed KPH | gust KPH | rain 1hr cm | rain 24hr cm | rain mn cm | humidity % | barometer mb |
| 20260510204528 | 13 | 253 | 1.6 | 8.0 | 0.00 | 0.00 | 0.00 | 33 | 1017.8 |
| 20260510203031 | 14 | 181 | 1.6 | 12.9 | 0.00 | 0.00 | 0.00 | 35 | 1017.9 |
| 20260510201526 | 13 | 217 | 1.6 | 9.7 | 0.00 | 0.00 | 0.00 | 35 | 1017.9 |
| 20260510200028 | 13 | 226 | 4.8 | 12.9 | 0.00 | 0.00 | 0.00 | 33 | 1018.0 |
| 20260510194527 | 13 | 269 | 4.8 | 12.9 | 0.00 | 0.00 | 0.00 | 34 | 1018.1 |
| 20260510193030 | 13 | 234 | 0.0 | 6.4 | 0.00 | 0.00 | 0.00 | 33 | 1018.1 |
| 20260510191545 | 13 | 259 | 1.6 | 6.4 | 0.00 | 0.00 | 0.00 | 34 | 1018.1 |
| 20260510190037 | 13 | 250 | 4.8 | 12.9 | 0.00 | 0.00 | 0.00 | 32 | 1018.3 |
| 20260510184530 | 12 | 336 | 1.6 | 12.9 | 0.00 | 0.00 | 0.00 | 34 | 1018.0 |
| 20260510183028 | 13 | 261 | 4.8 | 11.3 | 0.00 | 0.00 | 0.00 | 34 | 1017.7 |
| 20260510181526 | 13 | 259 | 4.8 | 9.7 | 0.00 | 0.00 | 0.00 | 32 | 1017.9 |
| 20260510180033 | 12 | 217 | 6.4 | 11.3 | 0.00 | 0.00 | 0.00 | 32 | 1017.8 |
| 20260510174527 | 12 | 288 | 1.6 | 8.0 | 0.00 | 0.00 | 0.00 | 34 | 1017.6 |
| 20260510173029 | 13 | 259 | 1.6 | 8.0 | 0.00 | 0.00 | 0.00 | 34 | 1017.6 |
| 20260510171528 | 13 | 360 | 3.2 | 11.3 | 0.00 | 0.00 | 0.00 | 33 | 1017.8 |
| 20260510170032 | 12 | 17 | 4.8 | 12.9 | 0.00 | 0.00 | 0.00 | 36 | 1018.0 |
| 20260510164530 | 12 | 252 | 4.8 | 14.5 | 0.00 | 0.00 | 0.00 | 34 | 1017.9 |
| 20260510163029 | 12 | 255 | 1.6 | 17.7 | 0.00 | 0.00 | 0.00 | 37 | 1018.0 |
| 20260510161527 | 12 | 318 | 1.6 | 8.0 | 0.00 | 0.00 | 0.00 | 36 | 1018.0 |
| 20260510160028 | 11 | 213 | 3.2 | 8.0 | 0.00 | 0.00 | 0.00 | 38 | 1017.9 |
| 20260510154539 | 11 | 259 | 1.6 | 12.9 | 0.00 | 0.00 | 0.00 | 39 | 1017.7 |
| 20260510153031 | 11 | 257 | 1.6 | 17.7 | 0.00 | 0.00 | 0.00 | 40 | 1017.7 |
| 20260510151528 | 11 | 329 | 1.6 | 12.9 | 0.00 | 0.00 | 0.00 | 41 | 1017.7 |
| 20260510150028 | 10 | 224 | 3.2 | 11.3 | 0.00 | 0.00 | 0.00 | 41 | 1017.6 |
| 20260510144538 | 10 | 242 | 3.2 | 11.3 | 0.00 | 0.00 | 0.00 | 43 | 1017.6 |
| 20260510143038 | 10 | 292 | 3.2 | 8.0 | 0.00 | 0.00 | 0.00 | 44 | 1017.5 |
| 20260510141526 | 10 | 338 | 1.6 | 8.0 | 0.00 | 0.00 | 0.00 | 46 | 1017.5 |
| 20260510140031 | 10 | 227 | 1.6 | 12.9 | 0.00 | 0.00 | 0.00 | 47 | 1017.5 |
| 20260510134527 | 9 | 229 | 1.6 | 6.4 | 0.00 | 0.00 | 0.00 | 48 | 1017.4 |
| 20260510133027 | 8 | 247 | 1.6 | 6.4 | 0.00 | 0.00 | 0.00 | 49 | 1017.5 |
| 20260510131534 | 8 | 250 | 1.6 | 6.4 | 0.00 | 0.00 | 0.00 | 52 | 1017.2 |
| 20260510130030 | 8 | 244 | 1.6 | 6.4 | 0.00 | 0.00 | 0.00 | 52 | 1017.0 |
| 20260510124526 | 7 | 265 | 0.0 | 3.2 | 0.00 | 0.00 | 0.00 | 58 | 1017.1 |
| 20260510123030 | 6 | 262 | 0.0 | 6.4 | 0.00 | 0.00 | 0.00 | 60 | 1016.8 |
| 20260510121526 | 6 | 0 | 0.0 | 3.2 | 0.00 | 0.00 | 0.00 | 65 | 1016.5 |
| 20260510120030 | 5 | 0 | 1.6 | 4.8 | 0.00 | 0.00 | 0.00 | 66 | 1016.5 |
| 20260510114529 | 4 | 241 | 0.0 | 4.8 | 0.00 | 0.00 | 0.00 | 69 | 1016.4 |
| 20260510113026 | 3 | 0 | 0.0 | 3.2 | 0.00 | 0.00 | 0.00 | 71 | 1016.2 |
| 20260510111526 | 2 | 277 | 0.0 | 3.2 | 0.00 | 0.00 | 0.00 | 75 | 1015.9 |
| 20260510110035 | 2 | 0 | 0.0 | 1.6 | 0.00 | 0.00 | 0.00 | 78 | 1015.7 |
| 20260510104528 | 1 | 0 | 0.0 | 1.6 | 0.00 | 0.00 | 0.00 | 78 | 1015.4 |
| 20260510103025 | 1 | 0 | 0.0 | 1.6 | 0.00 | 0.00 | 0.00 | 78 | 1015.2 |
| 20260510101527 | 1 | 0 | 0.0 | 1.6 | 0.00 | 0.00 | 0.00 | 78 | 1015.0 |
| 20260510100027 | 2 | 0 | 0.0 | 1.6 | 0.00 | 0.00 | 0.00 | 75 | 1014.9 |
| 20260510094543 | 2 | 0 | 0.0 | 1.6 | 0.00 | 0.00 | 0.00 | 73 | 1014.7 |
| 20260510093032 | 2 | 0 | 0.0 | 0.0 | 0.00 | 0.00 | 0.00 | 71 | 1014.6 |
| 20260510091536 | 3 | 0 | 0.0 | 0.0 | 0.00 | 0.00 | 0.00 | 69 | 1014.5 |
| 20260510090030 | 3 | 0 | 0.0 | 0.0 | 0.00 | 0.00 | 0.00 | 68 | 1014.3 |
| 20260510084529 | 4 | 0 | 0.0 | 1.6 | 0.00 | 0.00 | 0.00 | 66 | 1014.1 |
| 20260510083027 | 5 | 0 | 0.0 | 1.6 | 0.00 | 0.00 | 0.00 | 65 | 1013.8 |
| 20260510081529 | 5 | 331 | 0.0 | 4.8 | 0.00 | 0.00 | 0.00 | 61 | 1013.5 |
| 20260510080028 | 5 | 330 | 1.6 | 6.4 | 0.00 | 0.00 | 0.00 | 60 | 1013.4 |
| 20260510074530 | 5 | 0 | 0.0 | 4.8 | 0.00 | 0.00 | 0.00 | 61 | 1013.5 |
| 20260510073038 | 5 | 313 | 0.0 | 3.2 | 0.00 | 0.00 | 0.00 | 62 | 1013.1 |
| 20260510071529 | 5 | 0 | 0.0 | 1.6 | 0.00 | 0.00 | 0.00 | 64 | 1012.8 |
| 20260510070031 | 5 | 0 | 0.0 | 1.6 | 0.00 | 0.00 | 0.00 | 60 | 1012.7 |
| 20260510064527 | 5 | 0 | 0.0 | 1.6 | 0.00 | 0.00 | 0.00 | 59 | 1012.6 |
| 20260510063031 | 6 | 0 | 0.0 | 6.4 | 0.00 | 0.00 | 0.00 | 57 | 1012.7 |
| 20260510061529 | 6 | 11 | 1.6 | 8.0 | 0.00 | 0.00 | 0.00 | 54 | 1012.5 |
| 20260510060027 | 6 | 309 | 3.2 | 14.5 | 0.00 | 0.00 | 0.00 | 55 | 1012.2 |
| 20260510054529 | 6 | 0 | 0.0 | 6.4 | 0.00 | 0.00 | 0.00 | 55 | 1012.3 |
| 20260510053046 | 6 | 360 | 0.0 | 4.8 | 0.00 | 0.00 | 0.00 | 54 | 1011.9 |
| 20260510051527 | 7 | 300 | 0.0 | 6.4 | 0.00 | 0.00 | 0.00 | 50 | 1011.7 |
| 20260510050028 | 7 | 32 | 3.2 | 8.0 | 0.00 | 0.00 | 0.00 | 48 | 1011.4 |
| 20260510044528 | 7 | 24 | 3.2 | 8.0 | 0.00 | 0.00 | 0.00 | 48 | 1011.2 |
| 20260510043040 | 8 | 32 | 1.6 | 12.9 | 0.00 | 0.00 | 0.00 | 51 | 1010.9 |
| 20260510041531 | 8 | 44 | 3.2 | 9.7 | 0.00 | 0.00 | 0.00 | 51 | 1010.5 |
| 20260510040038 | 8 | 0 | 1.6 | 12.9 | 0.00 | 0.00 | 0.00 | 50 | 1010.3 |
| 20260510034528 | 9 | 0 | 1.6 | 8.0 | 0.00 | 0.00 | 0.00 | 50 | 1010.0 |
| 20260510033028 | 10 | 346 | 1.6 | 8.0 | 0.00 | 0.00 | 0.00 | 51 | 1009.7 |
| 20260510031530 | 9 | 244 | 1.6 | 8.0 | 0.00 | 0.00 | 0.00 | 55 | 1009.4 |
| 20260510030028 | 8 | 0 | 0.0 | 4.8 | 0.00 | 0.00 | 0.00 | 64 | 1009.1 |
| 20260510024528 | 9 | 0 | 0.0 | 1.6 | 0.00 | 0.00 | 0.00 | 63 | 1009.0 |
| 20260510023027 | 10 | 0 | 0.0 | 1.6 | 0.00 | 0.00 | 0.00 | 60 | 1008.7 |
| 20260510021538 | 11 | 0 | 0.0 | 3.2 | 0.00 | 0.00 | 0.00 | 56 | 1008.4 |
| 20260510020030 | 11 | 0 | 0.0 | 3.2 | 0.00 | 0.00 | 0.00 | 53 | 1008.1 |
| 20260510014532 | 12 | 0 | 1.6 | 6.4 | 0.00 | 0.00 | 0.00 | 52 | 1007.8 |
| 20260510013028 | 12 | 40 | 1.6 | 6.4 | 0.00 | 0.00 | 0.00 | 49 | 1007.4 |
| 20260510011540 | 13 | 32 | 1.6 | 4.8 | 0.00 | 0.00 | 0.00 | 46 | 1006.9 |
| 20260510010028 | 13 | 0 | 1.6 | 9.7 | 0.00 | 0.00 | 0.00 | 43 | 1006.4 |
| 20260510004531 | 14 | 360 | 1.6 | 12.9 | 0.00 | 0.00 | 0.00 | 43 | 1006.1 |
| 20260510003028 | 14 | 352 | 3.2 | 16.1 | 0.00 | 0.00 | 0.00 | 43 | 1005.7 |
| 20260510001532 | 15 | 21 | 1.6 | 16.1 | 0.00 | 0.00 | 0.00 | 44 | 1005.3 |
| 20260510000035 | 15 | 48 | 1.6 | 27.4 | 0.00 | 0.00 | 0.00 | 42 | 1005.1 |
| 20260509234527 | 15 | 276 | 1.6 | 16.1 | 0.00 | 0.00 | 0.00 | 42 | 1004.7 |
| 20260509233028 | 16 | 115 | 1.6 | 20.9 | 0.00 | 0.00 | 0.00 | 39 | 1004.4 |
| 20260509231527 | 16 | 18 | 1.6 | 9.7 | 0.00 | 0.00 | 0.00 | 37 | 1003.9 |
| 20260509230026 | 16 | 265 | 3.2 | 9.7 | 0.00 | 0.00 | 0.00 | 37 | 1003.6 |
| 20260509224527 | 17 | 261 | 4.8 | 16.1 | 0.00 | 0.00 | 0.00 | 37 | 1003.1 |
| 20260509223028 | 17 | 306 | 1.6 | 9.7 | 0.00 | 0.00 | 0.00 | 38 | 1003.1 |
| 20260509221527 | 17 | 0 | 1.6 | 6.4 | 0.00 | 0.00 | 0.00 | 39 | 1002.9 |
| 20260509220032 | 17 | 229 | 6.4 | 16.1 | 0.00 | 0.00 | 0.00 | 37 | 1002.8 |
| 20260509214529 | 17 | 217 | 4.8 | 14.5 | 0.00 | 0.00 | 0.00 | 38 | 1002.5 |
| 20260509213032 | 18 | 286 | 4.8 | 14.5 | 0.00 | 0.00 | 0.00 | 37 | 1002.2 |
| 20260509211528 | 18 | 288 | 4.8 | 16.1 | 0.00 | 0.00 | 0.00 | 35 | 1002.0 |
| 20260509210033 | 18 | 254 | 6.4 | 17.7 | 0.00 | 0.00 | 0.00 | 36 | 1001.8 |